Simultaneous Nadir Overpasses (SNOs) Predictions

Prediction of SNOs between NOAA-19 and TERRA Satellite Orbit:

Table of predicted SNOs for the next 14.0 days since TLE Epoch: 6/1/2015
Index Date (NOAA-19) Time (NOAA-19) Lat,Lon (NOAA-19) SZA (NOAA-19 ) Date (TERRA) Time (TERRA) Lat,Lon (TERRA) SZA (TERRA ) Distance(km) Time Diff (sec)
1 06/01/2015 06:31:38 -72.03, -94.25 130.03 06/01/2015 06:32:49 -72.05, -94.28 130.00 3.05 71
2 06/01/2015 07:22:42 71.93, 73.17 49.88 06/01/2015 07:22:17 71.92, 73.13 49.86 1.66 25
3 06/03/2015 12:06:05 71.98, 2.26 49.64 06/03/2015 12:06:35 72.01, 2.20 49.66 3.19 30
4 06/03/2015 12:57:00 -71.92, 169.66 130.43 06/03/2015 12:56:04 -71.94, 169.71 130.42 2.97 56
5 06/05/2015 16:49:38 72.55, -69.70 49.93 06/05/2015 16:50:47 72.42, -68.13 49.84 54.29 69
6 06/05/2015 17:40:23 -72.00, 98.69 130.61 06/05/2015 17:40:23 -71.98, 98.71 130.63 2.11 0
7 06/07/2015 22:23:46 -72.09, 27.72 130.75 06/07/2015 22:24:41 -72.08, 27.80 130.75 3.03 55
8 06/07/2015 23:14:50 71.94,-164.77 49.11 06/07/2015 23:14:09 71.94,-164.80 49.10 1.19 41
9 06/10/2015 03:58:13 72.02, 124.26 49.00 06/10/2015 03:58:27 72.05, 124.30 49.02 3.08 14
10 06/10/2015 04:49:07 -71.95, -68.32 131.08 06/10/2015 04:47:57 -71.93, -68.26 131.10 2.71 70
11 06/12/2015 08:41:36 72.12, 53.27 48.93 06/12/2015 08:42:46 72.11, 53.33 48.93 2.05 70
12 06/12/2015 09:32:29 -72.00,-139.23 131.19 06/12/2015 09:32:16 -71.99,-139.24 131.20 0.84 13
13 06/14/2015 14:15:51 -72.06, 149.85
